CAPE
24 146 85 494 307 337 393 311 346 402 317 306 403 471 573 561 720 874 921 894 902 1086 974 1093 1088 887 984 793 839 831 992 612 563 587 965 1533 1684 1481 1145 692 712 984 840
76 194 201 585 355 392 467 386 384 468 362 376 389 410 504 609 665 797 821 892 954 818 729 1047 1115 1016 708 722 581 562 661 518 671 498 689 323 784 1285 1492 1449 963 1264 1101
213 212 292 343 441 383 487 439 380 329 418 427 415 410 373 356 462 609 649 544 534 522 680 709 983 1095 677 459 480 449 508 844 666 444 396 714 887 1209 985 1012 1152 1549 1420
195 280 313 292 276 237 254 390 365 234 313 353 347 323 328 315 466 528 607 682 590 651 595 651 688 896 589 372 410 737 718 461 416 236 299 274 513 1571 1409 1264 1425 1221 1189
223 330 339 570 504 473 433 518 632 367 285 269 293 324 402 350 411 443 383 404 627 651 595 627 474 555 299 508 357 522 712 298 287 503 371 327 285 1058 1170 734 1185 1370 1096
94 132 481 719 627 677 718 704 592 602 448 300 449 492 473 449 469 510 456 480 601 673 393 629 445 291 235 635 300 375 344 344 731 201 212 271 379 888 806 998 1025 471 281
162 282 546 882 936 874 806 727 671 590 594 599 545 516 435 617 891 912 921 930 777 626 557 620 535 334 516 286 225 275 223 252 410 269 156 659 776 978 1242 1201 1268 1217 1225
68 102 244 573 877 1085 1045 911 957 923 954 1051 939 946 907 834 842 518 788 814 787 551 618 258 308 363 501 490 248 400 148 235 216 229 314 548 664 1017 1024 1113 1172 1344 1323
163 156 158 330 963 1021 921 863 1025 896 974 833 900 828 723 609 577 489 534 871 992 911 645 566 538 285 503 658 409 281 233 275 329 211 438 582 1008 1200 1243 1079 1109 1141 1284
99 183 452 343 282 405 727 1377 1210 1045 766 666 1043 867 779 839 611 716 656 622 974 569 877 671 577 550 592 393 300 398 116 241 352 238 289 208 786 918 1181 994 1172 1111 1182
124 142 171 625 172 263 436 897 750 926 840 919 635 854 273 773 419 446 683 1 0 297 880 769 711 342 397 313 230 297 232 284 110 319 440 293 930 1066 1078 913 1000 1110 1082
65 154 205 212 136 148 288 350 564 309 338 680 594 301 905 237 286 595 373 173 20 17 555 890 823 538 175 144 158 196 268 295 159 207 303 213 848 945 818 831 550 935 867
84 194 333 334 265 97 196 417 275 544 708 545 965 1100 1350 1050 746 688 660 555 191 390 458 473 370 292 146 86 288 135 40 384 283 261 83 77 348 878 988 848 779 824 879
109 285 340 411 556 341 235 362 387 665 814 1037 977 1357 1594 1040 1128 1337 1095 716 985 788 1096 497 487 359 305 235 64 312 374 132 140 125 72 27 86 522 966 1018 995 719 743
118 344 401 599 665 500 464 374 591 676 698 879 1206 1354 1161 1431 1224 1252 1430 1039 986 1074 1162 763 653 493 865 495 258 147 143 223 70 172 107 31 33 115 705 822 838 892 656
60 237 464 737 826 704 701 840 999 1119 1193 1040 1030 1609 1508 1588 1451 1271 1511 563 907 647 438 809 997 996 1016 777 745 483 318 383 452 411 451 61 80 152 625 610 570 596 442
55 122 469 787 894 1151 1237 1478 1389 1037 958 1072 1224 1437 1629 1613 1482 1486 1051 1344 799 769 1029 800 960 650 678 674 886 1031 770 884 809 573 264 53 169 174 341 59 37 312 378
261 200 497 624 909 1304 1392 1659 1372 1456 1311 1347 1463 1881 1625 1590 1232 1452 1528 1231 868 806 58 8 214 466 325 529 854 752 989 824 839 972 192 74 114 142 61 142 73 203 107
670 395 611 652 798 1354 1643 1773 1746 1732 1652 1275 1309 1739 2112 1759 2165 1917 1656 1853 1173 364 190 446 302 500 674 383 464 688 926 674 412 234 181 106 179 182 152 99 85 40 58
898 748 728 737 902 1189 1544 1801 1624 1537 1496 1324 1413 1683 2368 2378 2263 2235 1383 1730 1682 317 310 763 459 198 1095 786 991 866 496 120 425 493 567 281 325 331 454 241 82 49 17
1046 1038 984 895 1047 1388 1464 1538 1374 1300 1282 1273 1677 1978 2418 2286 2355 1797 1914 1587 1182 1309 1351 651 565 681 889 803 1212 967 845 1128 902 838 921 326 464 376 437 549 639 695 149
1118 1240 1318 1309 1440 1758 1582 1467 1336 1346 1560 1863 1507 1893 2402 2486 2442 2112 1799 1712 1549 1519 1332 837 206 381 625 962 727 614 322 205 229 341 354 478 631 681 597 738 740 671 345
1154 1289 1457 1586 1690 2000 1849 1769 1789 1924 2002 1410 1288 1583 2155 2561 2422 2510 2272 2036 2031 1570 1551 807 261 706 436 189 807 543 308 268 152 193 96 29 51 125 195 152 122 75 42
1080 1324 1429 1740 1834 2121 2189 1910 1882 1726 1282 984 1053 1432 1840 2528 2558 2518 2497 2139 1902 1466 1365 479 190 467 983 220 157 424 456 257 714 138 196 21 6 12 2 0 0 0 0
828 1075 1485 1821 2083 2114 2279 2258 2101 2117 1322 1246 1050 1977 2094 2779 2754 2542 2654 2239 2362 1381 1188 913 324 715 535 299 305 198 397 442 667 166 206 107 9 1 3 0 0 0 0
510 770 1166 1737 2394 2435 2314 2485 2321 2151 1923 1534 1325 1472 1421 2134 2816 2798 2539 2611 2425 1854 1246 850 656 684 861 839 564 377 329 213 235 388 353 223 19 15 22 2 0 0 0
CIN
-40 0 -4 0 0 0 0 0 -2 0 -4 0 0 -1 0 0 0 0 0 -1 -3 -1 -4 -1 0 0 0 0 -4 -7 -4 -15 -26 -31 -15 -4 0 -10 -11 -11 -7 -1 -5
-8 0 -4 -1 -1 0 0 0 -1 0 -2 0 0 -5 -1 0 0 0 -2 -4 -3 -12 -12 0 0 0 0 -1 -8 -5 -6 -15 -19 -37 -28 -46 -12 -10 -8 -1 -9 0 0
-1 -1 -1 -4 -1 -3 0 0 -4 -4 0 0 -2 -5 -1 -9 -8 -1 -2 -25 -27 -28 -13 -12 -3 0 -3 -3 -10 -4 -3 -9 -15 -20 -25 -23 0 -7 -19 -22 -12 0 0
-3 -1 -1 -9 -17 -20 -14 -4 -6 -9 -10 -2 -9 -12 0 -8 -9 -5 -1 -4 -11 -12 -20 -20 -10 -6 -4 -8 -9 0 -2 -31 -28 -48 -30 -26 -8 0 -15 -10 -2 -1 -3
-2 -1 -8 -6 -2 -3 -5 -3 -8 0 -12 -11 -19 -18 0 -6 -8 -10 -11 -14 -5 -5 -16 -29 -25 -16 -11 -7 -9 -8 -10 -32 -34 -24 -5 -16 -16 -27 -19 -21 -4 0 -2
-31 -4 -4 0 -2 0 0 0 0 -10 -2 -5 -4 -2 0 -1 -1 0 0 -4 -4 -6 -20 -11 -20 -17 -15 -4 -9 -11 -35 -45 -19 -3 -1 -3 -15 -28 -16 0 -6 -22 -41
-7 -3 -1 0 0 0 0 -2 -11 0 -1 0 -2 0 -1 0 0 0 0 0 0 -5 -9 -5 -11 -16 -11 -11 -15 -11 -27 -36 -17 -6 -3 -8 -21 -20 0 -1 0 -1 -1
-59 -21 -17 -13 0 0 0 0 0 0 0 0 0 0 0 -4 -1 -5 0 -1 -1 -11 -5 -12 -17 -14 -7 -9 -13 -15 -32 -30 -2 -2 -4 -4 -34 -5 -1 0 0 0 0
-10 -12 -25 -1 0 0 0 -2 0 -3 0 -3 0 0 0 -2 -4 -7 -5 -1 0 0 -2 -1 -5 -10 -3 -2 -11 -17 -36 -33 -11 -4 -3 -10 -17 0 0 0 0 0 0
-19 -7 -14 -8 -22 -7 -18 0 0 0 -5 -39 0 -1 -6 -8 -16 -9 -3 -4 0 -1 0 0 -3 -3 -1 -9 -17 -18 -39 -34 -11 -5 -29 -40 -18 0 0 0 0 0 0
-18 -14 -21 -3 -12 -2 -1 -6 -10 -8 -12 -12 -10 -10 -32 -4 -10 -20 -14 -55 0 -26 0 0 0 -13 -9 -22 -32 -37 -56 -19 -3 -26 -27 -63 -8 0 0 0 0 0 0
-108 -27 -20 -14 -22 -11 -2 -22 -6 -6 -10 -7 -4 -17 -8 -3 0 -12 -20 -60 -33 -82 -7 0 0 -9 -27 -7 -20 -37 -14 -4 -4 -7 -53 -56 -2 0 0 0 -6 0 0
-151 -42 -2 -4 -9 -76 -14 -2 -2 -9 -3 -2 0 0 -4 -2 -4 -16 -13 -12 -38 -16 -10 -2 -5 -3 -1 -1 0 -2 -28 -26 -2 -25 -66 -96 -26 0 0 0 0 0 0
-62 -11 -3 -17 -36 -17 -20 -4 -1 -3 -17 -2 -1 -3 -1 -8 -4 -2 -1 -23 -14 -9 -9 -12 -9 -3 -1 -1 -9 -19 -8 -25 -1 -13 -60 -89 -71 -3 0 0 0 -3 0
-71 -17 -12 -16 -39 -41 -43 -9 -1 -1 -1 -8 0 -2 -9 -1 -7 0 -1 -8 -2 -6 -6 -2 -1 -1 -4 -18 -1 -2 -3 -1 -9 -18 -49 -73 -72 -41 0 0 0 0 0
-144 -59 -15 -6 -30 -29 -30 -5 0 -2 -1 -1 -2 -2 -1 -1 -4 -3 -2 -2 -2 -4 -1 -11 -4 -7 -12 -5 -6 -2 -1 -2 -3 -17 -5 -73 -60 -36 -1 -1 -2 0 -1
-155 -113 -15 -6 -15 -16 -2 -2 -1 -1 -1 -2 -1 -3 -6 -9 -1 -3 -1 -8 -2 -7 -5 -3 -1 -3 -3 -10 -6 -2 -6 -6 -7 -17 -43 -57 -36 -25 -5 -31 -45 -7 -1
-61 -95 -50 -18 -4 -13 -1 -1 -1 -1 -1 -1 -2 -8 -25 -23 -29 -17 -2 -9 -5 -2 -3 -1 -5 -1 -3 -14 -2 -17 -4 -16 -1 -4 -45 -37 -19 -23 -23 -11 -17 -2 -22
-18 -79 -54 -34 -2 -2 -1 -1 -2 -2 -2 -1 -1 -3 -17 -9 -2 -4 -7 -4 -8 -2 -5 -3 -12 -9 -3 -20 -22 -6 -3 -19 -12 -34 -36 -36 -20 -28 -22 -30 -25 -49 -12
-12 -50 -51 -38 -7 -5 -1 -4 -1 -1 -2 0 -2 0 -1 -1 0 -3 -2 -1 -4 -3 -4 -4 -11 -2 -9 -7 -5 -9 -22 -44 -13 -7 -3 -15 -9 -2 -2 -2 -36 -42 -62
-7 -32 -44 -34 -37 -21 -13 -2 -2 -1 -1 -3 -1 -11 0 0 0 -8 -2 -3 -2 -6 -10 -6 -3 -2 -3 -19 -2 -4 -6 -2 0 -3 -2 -17 -5 -5 -3 0 -3 0 -13
-2 -13 -23 -20 -30 -27 -1 -1 -1 -1 -1 -4 -2 -2 -1 0 0 -1 -3 -7 -6 -7 -11 -1 -22 -13 -21 -5 -2 -13 -2 -4 -3 -4 -5 -7 -4 -1 0 0 0 0 -1
-3 -4 -21 -24 -29 -25 -4 -2 -1 -3 -9 -2 -2 -1 -1 0 -1 -1 0 -1 -4 -7 -7 -15 -47 -4 -11 -2 -3 -9 -2 -1 -2 -5 -6 -6 -1 -6 -2 -1 0 -1 -4
-3 -2 -10 -25 -29 -26 -19 -2 -1 -1 -2 -2 -2 -3 -2 -1 -1 -1 -1 0 -9 -3 -4 -9 -42 -4 -12 -2 -4 -3 -12 -7 0 -4 -5 -2 -1 -1 -1 0 0 0 0
-13 -3 -10 -26 -34 -18 -21 -9 -2 -7 -3 -1 -2 -4 -8 -2 0 0 -1 -1 0 -4 -5 -4 -29 -16 -4 -15 -3 -3 -4 -3 -12 -30 -3 -41 -2 -1 -2 0 0 0 0
-45 -37 -21 -24 -41 -47 -32 -31 -12 -1 -6 -3 -2 -2 -2 -3 -6 -4 -1 -2 0 0 -9 -10 -21 -18 -10 -9 -13 -8 -4 -5 -2 -14 -26 -12 -5 -6 -1 -1 0 0 0
Wind_Speed
18 19 23 26 27 29 31 34 36 35 35 34 34 35 34 31 30 32 31 30 30 29 29 30 29 28 26 27 28 29 30 31 32 29 21 16 17 9 5 4 8 1 2
21 23 27 27 29 30 30 34 35 34 33 32 31 31 32 31 30 29 29 29 28 28 26 27 27 28 27 28 28 28 30 30 31 31 24 18 7 7 2 2 4 1 1
28 29 28 26 25 26 26 31 33 32 31 30 30 30 29 28 28 26 27 27 26 26 25 24 25 26 26 27 28 29 30 30 31 31 26 15 9 6 1 2 0 1 1
33 33 29 22 23 26 29 30 29 30 30 28 28 28 26 25 25 25 23 23 24 23 22 22 23 23 25 26 28 29 30 31 29 32 29 17 7 12 2 2 2 3 2
31 17 20 26 27 25 26 26 28 28 29 28 27 26 24 23 21 22 21 20 20 19 20 20 20 21 23 25 27 26 27 27 25 23 27 28 22 11 9 10 5 7 8
34 30 30 29 28 26 26 25 26 27 27 26 25 24 23 21 20 20 19 18 17 17 16 17 18 19 21 23 24 25 26 26 24 25 26 11 7 20 16 13 5 5 4
25 31 31 27 27 25 25 25 25 26 25 24 23 22 21 20 19 18 18 17 16 15 15 17 18 18 19 22 24 24 25 23 22 26 24 24 5 21 16 11 9 7 6
30 26 27 27 26 25 26 23 24 24 23 23 22 21 19 19 19 18 18 17 17 17 17 17 18 19 20 21 23 23 23 20 24 24 24 5 5 21 22 16 12 8 6
16 17 25 27 25 26 24 22 22 22 22 21 20 20 19 18 18 18 19 19 18 18 19 19 19 20 22 22 22 23 21 19 21 23 25 25 25 22 21 19 13 11 9
20 23 23 26 26 27 25 23 22 21 22 21 21 20 19 20 19 18 19 17 17 18 18 19 19 21 22 22 23 23 22 21 23 23 9 19 26 26 24 24 15 9 10
26 23 23 24 23 25 18 22 22 22 21 21 20 20 19 18 19 18 18 17 15 16 17 18 18 20 21 21 21 22 21 20 23 20 14 24 25 25 23 25 24 22 21
25 25 20 21 13 20 11 16 21 20 20 20 19 19 17 18 17 11 18 16 16 16 17 17 18 19 20 20 20 21 20 20 20 19 16 21 25 25 25 25 24 22 20
22 24 7 7 7 19 12 20 19 14 20 17 19 18 17 16 17 13 15 15 15 15 16 17 17 17 19 19 19 20 19 19 20 20 20 20 22 24 23 24 25 22 21
22 22 20 16 15 20 18 20 18 17 18 17 16 18 18 14 14 17 17 17 17 16 16 17 17 17 17 18 18 18 20 19 19 19 19 22 21 20 18 17 17 14 8
21 20 20 16 14 17 18 18 17 16 17 16 14 17 17 9 17 17 15 15 16 16 16 16 16 16 16 19 18 18 17 18 19 14 14 17 19 20 17 15 11 9 8
19 16 16 17 15 16 16 15 16 15 13 15 15 16 17 14 17 17 16 17 16 17 17 17 16 15 16 17 18 15 16 14 16 11 10 12 12 13 15 15 15 10 7
16 13 13 14 14 14 13 14 15 15 15 13 12 14 13 14 17 15 16 12 17 18 17 17 16 16 13 17 17 14 10 11 11 10 10 10 15 14 16 16 13 13 14
15 12 10 11 11 11 11 12 13 13 14 13 14 13 15 16 16 16 16 14 18 16 17 18 16 16 13 15 16 12 14 13 12 11 9 9 10 13 19 21 16 10 7
15 13 13 13 12 12 11 12 9 12 17 18 16 12 13 14 14 15 11 18 15 16 17 15 15 14 11 10 13 15 14 13 12 11 11 12 10 13 20 19 18 14 13
17 17 14 13 12 11 11 9 10 11 19 18 17 14 14 15 15 16 16 18 14 16 16 18 17 16 16 14 14 12 16 17 17 20 19 7 15 16 21 20 17 16 15
17 17 17 14 12 11 10 9 9 9 11 19 13 14 16 14 14 14 16 16 14 17 18 17 15 15 14 14 15 15 16 20 19 18 19 18 16 17 18 16 15 14 13
18 17 17 17 15 14 12 8 9 15 12 15 13 14 17 12 14 13 14 15 13 16 16 15 14 10 14 13 14 16 15 15 15 17 17 17 17 17 15 14 13 13 14
18 17 18 18 17 18 20 11 8 19 18 17 9 17 10 12 12 13 14 13 14 12 14 15 15 17 8 11 13 14 11 13 13 13 12 14 14 15 16 15 14 14 13
18 18 18 18 18 17 18 17 11 14 16 7 18 15 13 11 12 12 13 13 13 11 15 13 18 19 18 14 12 12 16 10 14 12 13 13 13 14 14 14 14 13 12
17 17 17 18 18 18 16 21 8 18 7 18 20 17 17 13 11 12 13 13 13 12 13 15 17 20 17 18 13 13 13 11 11 11 11 12 12 13 12 13 14 14 13
15 15 15 15 16 17 16 16 16 8 21 20 15 19 14 7 11 12 13 13 13 13 13 17 18 18 19 18 18 17 13 16 3 10 10 10 11 11 12 12 13 13 13
Wind_Direction
178 172 163 157 153 147 141 134 107 126 130 130 126 115 110 120 115 99 95 90 91 87 93 79 86 75 65 69 79 82 86 88 91 90 78 70 65 55 163 190 171 141 162
171 166 160 156 151 147 147 136 121 125 130 134 135 127 109 112 112 115 101 98 94 88 98 92 94 84 78 75 89 97 92 95 96 102 90 79 53 43 61 49 40 68 181
155 152 155 160 160 158 159 146 134 131 135 140 135 134 127 121 115 116 107 107 102 92 98 104 96 86 85 86 100 98 100 100 105 100 102 73 206 206 330 351 8 197 324
149 140 151 171 169 161 151 147 144 143 131 144 143 137 134 132 124 114 122 122 111 104 103 103 97 92 91 91 99 99 106 111 115 98 129 82 218 205 307 229 219 208 4
152 170 172 161 159 161 160 160 148 150 142 139 142 140 136 130 136 121 125 135 123 123 114 110 106 107 103 100 100 107 112 121 126 129 110 103 178 213 219 204 216 206 200
128 145 151 153 154 159 160 161 155 149 147 144 145 141 142 140 135 127 134 135 145 136 130 125 123 113 109 115 110 110 120 131 132 118 110 202 69 184 196 207 229 219 223
88 111 133 155 157 162 162 163 159 147 145 148 144 147 150 149 139 125 138 143 146 144 137 138 135 123 130 123 113 118 126 141 145 117 142 125 231 181 197 211 218 223 222
112 99 128 156 161 165 158 168 162 154 155 150 150 148 158 152 137 129 143 135 131 130 132 131 132 125 133 129 124 130 143 156 134 134 139 208 227 186 185 203 217 233 247
72 75 106 152 165 157 163 171 169 164 156 161 156 153 153 157 145 136 133 118 124 124 120 121 131 122 123 133 124 134 155 166 160 140 119 137 167 189 193 203 221 231 244
87 98 99 118 126 134 145 164 169 170 145 152 145 149 157 142 137 133 124 138 123 114 118 117 127 115 116 125 132 130 141 154 135 129 132 86 142 166 185 186 226 256 250
124 111 115 117 123 132 84 116 125 143 136 141 135 144 156 149 117 124 90 90 145 134 128 130 127 122 120 128 134 141 150 154 131 132 58 122 160 159 123 158 184 195 199
139 157 107 110 66 158 55 93 125 117 119 132 112 139 171 149 144 347 79 102 119 137 143 131 129 132 133 130 131 146 151 147 134 157 69 113 154 167 153 173 186 197 205
119 157 299 334 267 105 50 128 115 63 143 89 129 160 163 161 129 72 123 123 119 137 142 133 125 139 146 130 139 144 144 144 142 118 108 112 134 148 140 153 159 148 144
127 125 121 99 91 188 101 138 102 87 101 109 91 137 141 178 129 93 97 101 104 106 115 129 137 145 145 155 135 114 130 137 154 132 106 136 135 131 125 118 120 107 62
123 122 118 95 91 110 110 120 96 81 114 80 65 107 81 67 10 71 106 101 69 84 104 66 117 135 141 177 161 143 128 137 144 72 81 114 131 138 124 121 96 86 76
121 107 102 107 95 103 103 90 86 89 46 73 70 62 87 122 27 48 86 65 77 58 34 64 82 99 123 137 157 120 134 102 123 331 44 78 94 113 117 119 123 95 65
116 95 90 98 91 90 81 85 98 85 72 59 6 33 317 158 48 102 80 171 23 62 80 57 95 92 39 167 143 109 36 17 69 54 30 50 113 118 135 138 126 122 126
112 96 84 90 80 76 70 78 80 70 77 82 90 51 55 109 50 112 111 139 37 90 69 53 72 108 182 226 184 341 117 109 75 50 16 62 76 106 156 166 142 115 88
112 104 106 102 97 86 68 74 27 355 239 200 224 22 51 5 76 153 187 30 87 72 32 48 68 125 81 226 70 104 94 63 98 83 86 97 54 267 171 138 134 117 118
115 121 119 109 100 92 79 59 358 337 223 209 229 283 318 112 66 211 22 45 108 72 50 7 331 325 340 320 4 37 71 85 106 123 105 45 110 115 164 141 122 122 125
122 125 132 125 111 104 93 73 33 360 330 200 315 288 278 350 76 83 31 58 97 39 25 30 19 16 4 13 20 18 28 66 80 86 100 102 98 114 125 113 103 101 102
136 134 138 140 130 130 110 72 334 288 311 297 301 313 274 356 50 94 58 55 76 44 54 61 183 332 57 52 33 39 26 27 24 63 72 73 76 72 75 74 66 74 73
144 144 146 147 145 148 166 102 53 258 267 282 224 227 61 45 72 76 57 57 56 75 70 65 139 235 334 4 321 354 31 10 37 21 30 17 34 49 62 58 55 55 63
147 148 151 151 154 153 155 158 118 138 178 43 266 295 309 33 99 106 75 75 80 93 40 66 176 215 209 86 1 22 356 42 359 9 349 4 15 39 44 46 39 37 52
143 146 146 151 154 159 151 176 103 170 55 273 250 284 286 350 94 94 79 83 90 102 73 216 231 196 220 226 145 107 60 85 57 17 31 10 36 38 36 39 37 33 25
137 138 137 140 144 151 151 157 160 110 211 269 294 269 187 67 78 100 94 102 111 111 129 176 188 186 205 251 239 242 122 153 87 33 33 72 73 36 62 38 29 30 36